This demonstration page uses our WeatherBlox Daily Observations layout. Learn more.

Left ArrowRight Arrow

Hourly Observations for December 26, 2015

Temp ( °F °C ) Dew Point ( °F °C ) Humidity (%) Winds ( mph kmh ) Pressure ( in mb ) Visibility ( mi km ) Precip ( " mm )
12:39 am 00:39 Cloudy with Haze 42 5.6 22 -5.6 45 45 NW 12 19 29.85 1011 1 1 N/A
12:49 am 00:49 Cloudy with Haze 43 6 21 -6 42 42 WNW 12 19 29.85 1011 3 4 N/A
12:51 am 00:51 Cloudy 42 5.6 22 -5.6 45 45 WNW 12 19 29.79 1009 8 13 N/A
1:51 am 01:51 Cloudy 41 5 22 -5.6 47 47 NW 7 11 29.77 1008 10 16 N/A
2:51 am 02:51 Cloudy 40 4.4 23 -5 51 51 NW 6 9 29.78 1008 10 16 N/A
3:51 am 03:51 Cloudy 40 4.4 21 -6.1 47 47 NW 5 7 29.77 1008 10 16 N/A
4:51 am 04:51 Mostly Cloudy 38 3.3 21 -6.1 51 51 W 9 15 29.77 1008 10 16 N/A
5:51 am 05:51 Clear 35 1.7 19 -7.2 52 52 WNW 10 17 29.79 1009 10 16 N/A
6:51 am 06:51 Clear 32 undefined 19 -7.2 59 59 WNW 9 15 29.80 1009 10 16 N/A
7:51 am 07:51 Sunny 29 -1.7 20 -6.7 69 69 NW 9 15 29.82 1010 10 16 N/A
8:51 am 08:51 Sunny 33 0.6 19 -7.2 56 56 NW 12 19 29.83 1010 10 16 N/A
9:51 am 09:51 Sunny 38 3.3 17 -8.3 43 43 WNW 18 30 29.83 1010 10 16 N/A
10:51 am 10:51 Sunny 41 5 16 -8.9 36 36 WNW 14 22 29.82 1010 10 16 N/A
11:51 am 11:51 Partly Cloudy 42 5.6 14 -10 32 32 WNW 15 24 29.80 1009 10 16 N/A
12:16 pm 12:16 Hazy 46 7.8 14 -10 27 27 WNW 15 24 29.83 1010 2 3 N/A
12:25 pm 12:25 Mostly Cloudy 45 7.2 13 -10.6 27 27 WNW 18 30 29.83 1010 10 16 N/A
12:51 pm 12:51 Cloudy 45 7.2 13 -10.6 27 27 WNW 20 31 29.77 1008 10 16 N/A
1:51 pm 13:51 Cloudy 47 8.3 14 -10 26 26 W 20 31 29.75 1007 10 16 N/A
2:51 pm 14:51 Cloudy 46 7.8 14 -10 27 27 WNW 28 44 29.75 1008 10 16 N/A
3:51 pm 15:51 Cloudy 45 7.2 15 -9.4 30 30 WNW 28 44 29.76 1008 10 16 N/A
4:33 pm 16:33 Cloudy 43 6.1 18 -7.8 37 37 NW 12 19 29.83 1010 10 16 N/A
4:51 pm 16:51 Cloudy 41 5 21 -6.1 45 45 VRB 5 7 29.81 1010 10 16 N/A
5:51 pm 17:51 Cloudy 42 5.6 19 -7.2 40 40 NW 9 15 29.85 1011 10 16 N/A
6:51 pm 18:51 Cloudy 40 4.4 18 -7.8 41 41 W 16 26 29.87 1012 10 16 N/A
7:51 pm 19:51 Cloudy 40 4.4 16 -8.9 38 38 WNW 15 24 29.91 1013 10 16 N/A
8:51 pm 20:51 Cloudy 40 4.4 22 -5.6 49 49 N 7 11 29.92 1013 10 16 N/A
9:51 pm 21:51 Cloudy 37 2.8 23 -5 57 57 NNW 10 17 29.95 1014 10 16 N/A
10:51 pm 22:51 Cloudy 38 3.3 18 -7.8 44 44 WNW 15 24 29.98 1015 10 16 N/A
11:51 pm 23:51 Cloudy 37 2.8 17 -8.3 44 44 WNW 10 17 29.99 1016 10 16 N/A

Powered by AerisWeather